Retour au catalogue

CENTISPACE-1 S12

ActifNavigationLEO
NORAD 62581·PAYLOAD·🇨🇳 China

Lancé Jan 13, 2025 depuis Yellow Sea Launch Area

Loading…

Prochains Passages (prochaines 24 heures)

TLE

FraisSource: Space-Track

Époque: Sep 14, 2026, 22:48 UTC

1 62581U 25007G   26257.95011170 -.00000056  00000-0  79850-4 0  9997
2 62581  54.9789 337.4402 0013455 308.1846  51.7898 13.80621189 87133

Suivez CENTISPACE-1 S12 en temps réel avec AllMySat

Download on the App Store